Volver al catálogo

FLOCK 4G 24

ActivoCienciaSSO
NORAD 62637·PAYLOAD·🇺🇸 United States

Lanzado Jan 14, 2025 desde Vandenberg Space Force Base

Loading…

Próximos Pases (próximas 24 horas)

TLE

ActualizadoSource: CelesTrak SupGP

Época: Sep 14, 2026, 12:45 UTC

1 62637C 25009AE  26257.53136574  .00010552  00000+0  34895-3 0  2577
2 62637  97.3976 339.5459 0002319   4.5183 122.8149 15.31398779    12

Sigue FLOCK 4G 24 en tiempo real con AllMySat

Download on the App Store